Tracking 29892 objects as of 21-Nov-2024
HD Live streaming from Space Station
objects crossing your sky now

STARLINK-32176

Track STARLINK-32176 now!
10-day predictions
STARLINK-32176 is classified as:


NORAD ID: 60340
Int'l Code: 2024-136M
Perigee: 482.0 km
Apogee: 482.8 km
Inclination: 53.2 °
Period: 94.1 minutes
Semi major axis: 6853 km
RCS: Unknown
Launch date: August 2, 2024
Source: United States (US)
Launch site: AIR FORCE EASTERN TEST RANGE (AFETR)
Your satellite tracking list
Your tracking list is empty




NASA's NSSDC Master Catalog

Two Line Element Set (TLE):
1 60340U 24136M   24325.82464548 -.00000087  00000-0  91601-5 0  9994
2 60340  53.1617 116.7217 0000567 105.0980 255.0083 15.30194477 18287
Source of the keplerian elements: AFSPC